Iliamna, AK

7:04 PM AKDT on October 17, 2017 (GMT -0800)
Iliamna

Weather History for PAIL - January, 2013

Change the Weather History Date:

Monday, January 7, 2013

  Actual Average Record
Temperature  
Mean Temperature 28 °F -  
Max Temperature 34 °F 23 °F 46 °F (1942)
Min Temperature 19 °F 13 °F -29 °F (1997)
Degree Days  
Heating Degree Days 38    
Moisture  
Dew Point 24 °F    
Average Humidity 88    
Maximum Humidity 96    
Minimum Humidity 70    
Precipitation  
Precipitation 0.03 in - - ()
Sea Level Pressure  
Sea Level Pressure 29.25 in    
Wind  
Wind Speed 5 mph (NNW)    
Max Wind Speed 9 mph    
Max Gust Speed -    
Visibility 6 miles    
Events Snow    
Averages and records for this station are not official NWS values.
T = Trace of Precipitation, MM = Missing Value Source: NWS Daily Summary

Daily Weather History Graph

Daily Weather History Graph

Search for Another Location

Airport or City:

Trip Planner

Search our weather history database for the weather conditions in past years. The results will help you decide how hot, cold, wet, or windy it might be!

Date:

Astronomy

Jan. 07, 2013 Rise Set
Actual Time 10:14 AM AKST 4:38 PM AKST
Civil Twilight 9:20 AM AKST 5:32 PM AKST
Nautical Twilight 8:25 AM AKST 6:27 PM AKST
Astronomical Twilight 7:35 AM AKST 7:17 PM AKST
Moon 5:34 AM AKST (1/7) 1:10 PM AKST (1/7)
Length of Visible Light 8h 12m
Length of Day
6h 23m
Waning Crescent, 21% of the Moon is Illuminated
Jan 7
Waning Crescent
Jan 11
New
Jan 18
First Quarter
Jan 26
Full
Feb 3
Last Quarter

Hourly Weather History & Observations

Time (AKST) Temp. Windchill Dew Point Humidity Pressure Visibility Wind Dir Wind Speed Gust Speed Precip Events Conditions
12:53 AM 34.0 °F 29.8 °F 30.0 °F 85% 28.94 in 10.0 mi North 4.6 mph - N/A   Overcast
1:53 AM 34.0 °F 27.2 °F 30.0 °F 85% 28.95 in 10.0 mi NW 8.1 mph - N/A   Overcast
3:53 AM 33.1 °F 27.7 °F 28.0 °F 82% 28.96 in 10.0 mi NNW 5.8 mph - N/A   Overcast
4:53 AM 33.1 °F - 28.0 °F 82% 28.97 in 10.0 mi Calm Calm - N/A   Overcast
5:53 AM 33.1 °F 26.9 °F 27.0 °F 78% 28.99 in 10.0 mi North 6.9 mph - N/A   Overcast
6:53 AM 33.1 °F 26.1 °F 28.9 °F 85% 29.01 in 10.0 mi NNW 8.1 mph - N/A   Overcast
7:53 AM 30.0 °F 26.5 °F 26.1 °F 85% 29.03 in 10.0 mi NNW 3.5 mph - N/A   Overcast
8:53 AM 30.9 °F 25.2 °F 25.0 °F 79% 29.06 in 10.0 mi North 5.8 mph - N/A   Overcast
9:53 AM 28.0 °F 21.7 °F 24.1 °F 85% 29.10 in 10.0 mi North 5.8 mph - 0.00 in   Overcast
10:53 AM 28.9 °F 21.9 °F 24.1 °F 82% 29.13 in 10.0 mi NNW 6.9 mph - N/A   Overcast
11:53 AM 28.0 °F 21.7 °F 25.0 °F 88% 29.16 in 4.0 mi NNW 5.8 mph - 0.00 in Snow Light Snow
12:53 PM 28.0 °F 20.0 °F 26.1 °F 92% 29.19 in 9.0 mi NNW 8.1 mph - 0.00 in   Overcast
1:35 PM 28.4 °F 20.4 °F 26.6 °F 93% 29.19 in 5.0 mi NNW 8.1 mph - 0.00 in Snow Light Snow
1:53 PM 27.0 °F 18.0 °F 25.0 °F 92% 29.21 in 8.0 mi NNW 9.2 mph - 0.00 in Snow Light Snow
2:33 PM 26.6 °F 18.2 °F 24.8 °F 93% 29.22 in 2.0 mi NNW 8.1 mph - 0.00 in Snow Light Snow
2:53 PM 26.1 °F 19.4 °F 25.0 °F 96% 29.24 in 1.5 mi NW 5.8 mph - 0.00 in Snow Light Snow
3:08 PM 26.6 °F 20.0 °F 24.8 °F 93% 29.24 in 2.0 mi WNW 5.8 mph - 0.00 in Snow Light Snow
3:22 PM 26.6 °F 20.0 °F 24.8 °F 93% 29.25 in 3.0 mi NNW 5.8 mph - 0.00 in Snow Light Snow
3:51 PM 26.6 °F 19.1 °F 24.8 °F 93% 29.26 in 7.0 mi North 6.9 mph - 0.00 in Snow Light Snow
3:53 PM 26.1 °F 18.4 °F 24.1 °F 92% 29.27 in 7.0 mi NNW 6.9 mph - 0.00 in Snow Light Snow
4:53 PM 25.0 °F 17.1 °F 23.0 °F 92% 29.30 in 6.0 mi North 6.9 mph - 0.00 in Snow Light Snow
5:15 PM 24.8 °F 16.9 °F 21.2 °F 86% 29.30 in 10.0 mi North 6.9 mph - 0.00 in   Overcast
5:53 PM 24.1 °F 16.0 °F 21.0 °F 88% 29.33 in 10.0 mi North 6.9 mph - 0.00 in   Overcast
6:53 PM 24.1 °F 15.2 °F 19.9 °F 84% 29.37 in 10.0 mi North 8.1 mph - N/A   Overcast
7:46 PM 23.0 °F - 21.2 °F 93% 29.39 in 1.8 mi Calm Calm - 0.00 in Snow Light Snow
7:53 PM 23.0 °F - 21.0 °F 92% 29.41 in 1.5 mi Calm Calm - 0.01 in Snow Light Snow
8:45 PM 23.0 °F - 21.2 °F 93% 29.43 in 2.0 mi Calm Calm - 0.02 in Snow Light Snow
8:53 PM 23.0 °F - 21.0 °F 92% 29.45 in 2.0 mi Calm Calm - 0.02 in Snow Light Snow
9:32 PM 23.0 °F - 21.2 °F 93% 29.45 in 3.0 mi Calm Calm - 0.00 in Snow Light Snow
9:53 PM 21.9 °F - 21.0 °F 96% 29.48 in 3.0 mi Calm Calm - 0.00 in Snow Light Snow
10:38 PM 23.0 °F - 21.2 °F 93% 29.50 in 4.0 mi Calm Calm - 0.00 in Snow Light Snow
10:53 PM 21.9 °F - 19.9 °F 92% 29.52 in 2.5 mi Calm Calm - 0.01 in Snow Light Snow
11:02 PM 21.2 °F - 17.6 °F 86% 29.51 in 5.0 mi Calm Calm - 0.00 in Snow Light Snow
11:14 PM 21.2 °F 16.4 °F 17.6 °F 86% 29.52 in 6.0 mi NNE 3.5 mph - 0.00 in Snow Light Snow
11:53 PM 19.9 °F 14.9 °F 17.1 °F 89% 29.56 in 6.0 mi North 3.5 mph - 0.00 in Snow Light Snow